Tracking 32418 objects as of 9-Dec-2025
HD Live streaming from Space Station
objects crossing your sky now

TIROS 9

Track TIROS 9 now!
10-day predictions
TIROS 9 is classified as:


NORAD ID: 978
Int'l Code: 1965-004A
Perigee: 710.6 km
Apogee: 2,566.5 km
Inclination: 96.4 °
Period: 118.9 minutes
Semi major axis: 8009 km
RCS: 0.8367 m2 (medium)
Launch date: January 22, 1965
Source: United States (US)
Launch site: AIR FORCE EASTERN TEST RANGE (AFETR)
Your satellite tracking list
Your tracking list is empty




NASA's NSSDC Master Catalog

Two Line Element Set (TLE):
1 00978U 65004A   25343.21632445  .00000020  00000-0  32229-4 0  9997
2 00978  96.4014 220.5431 1158521  85.8478 287.3868 12.11125553688617
Source of the keplerian elements: AFSPC